Crosby, ND

11:57 AM CDT on May 21, 2018 (GMT -0500)
Crosby

Weather History for KD50 - February, 2013

Change the Weather History Date:

Tuesday, February 19, 2013

  Actual Average (KISN) Record (KISN)
Temperature  
Mean Temperature -11 °F -  
Max Temperature -2 °F 30 °F 55 °F (1981)
Min Temperature -20 °F 9 °F -38 °F (1929)
Degree Days  
Heating Degree Days 76    
Moisture  
Dew Point -18 °F    
Average Humidity 71    
Maximum Humidity 84    
Minimum Humidity 60    
Precipitation  
Precipitation 0.00 in - - ()
Sea Level Pressure  
Sea Level Pressure 30.30 in    
Wind  
Wind Speed 7 mph (ESE)    
Max Wind Speed 18 mph    
Max Gust Speed -    
Visibility 10 miles    
Events      
Averages and records for this station are not official NWS values.
T = Trace of Precipitation, MM = Missing Value Source: NWS Daily Summary

Daily Weather History Graph

Daily Weather History Graph

Search for Another Location

Airport or City:

Astronomy

Feb. 19, 2013 Rise Set
Actual Time 7:53 AM CST 6:21 PM CST
Civil Twilight 7:21 AM CST 6:53 PM CST
Nautical Twilight 6:44 AM CST 7:30 PM CST
Astronomical Twilight 6:08 AM CST 8:06 PM CST
Moon 12:38 PM CST (2/19) 3:43 AM CST (2/19)
Length of Visible Light 11h 31m
Length of Day
10h 27m
Waxing Gibbous, 67% of the Moon is Illuminated
Feb 19
Waxing Gibbous
Feb 25
Full
Mar 4
Last Quarter
Mar 11
New
Mar 19
First Quarter

Hourly Weather History & Observations

Time (CST) Temp. Windchill Dew Point Humidity Pressure Visibility Wind Dir Wind Speed Gust Speed Precip Events Conditions
12:15 AM -14.8 °F -27.2 °F -20.2 °F 77% 30.30 in 10.0 mi North 4.6 mph - N/A   Clear
12:35 AM -11.2 °F -20.6 °F -16.6 °F 77% 30.31 in 10.0 mi WNW 3.5 mph - N/A   Clear
12:55 AM -14.8 °F -29.1 °F -20.2 °F 77% 30.32 in 10.0 mi WSW 5.8 mph - N/A   Clear
1:15 AM -16.6 °F -26.8 °F -20.2 °F 84% 30.32 in 10.0 mi WNW 3.5 mph - N/A   Clear
1:35 AM -16.6 °F - -20.2 °F 84% 30.32 in 10.0 mi Calm Calm - N/A   Clear
1:55 AM -16.6 °F - -22.0 °F 76% 30.32 in 10.0 mi Calm Calm - N/A   Clear
2:15 AM -16.6 °F - -20.2 °F 84% 30.32 in 10.0 mi Calm Calm - N/A   Clear
2:35 AM -18.4 °F - -23.8 °F 76% 30.32 in - Calm Calm - N/A   Clear
2:55 AM -18.4 °F - -23.8 °F 76% 30.32 in - Calm Calm - N/A   Clear
3:15 AM -20.2 °F - -25.6 °F 76% 30.32 in 10.0 mi Calm Calm - N/A   Clear
3:35 AM -20.2 °F - -25.6 °F 76% 30.32 in 10.0 mi Calm Calm - N/A   Clear
3:55 AM -20.2 °F - -25.6 °F 76% 30.33 in - Calm Calm - N/A   Clear
4:15 AM -20.2 °F -30.9 °F -25.6 °F 76% 30.33 in 10.0 mi SE 3.5 mph - N/A   Clear
4:35 AM -16.6 °F -31.3 °F -22.0 °F 76% 30.32 in 10.0 mi SE 5.8 mph - N/A   Clear
4:55 AM -13.0 °F -25.1 °F -18.4 °F 77% 30.32 in - SE 4.6 mph - N/A   Clear
5:15 AM -13.0 °F -27.0 °F -20.2 °F 70% 30.32 in - ESE 5.8 mph - N/A   Clear
5:55 AM -18.4 °F -35.1 °F -22.0 °F 84% 30.32 in - SE 6.9 mph - N/A   Unknown
6:15 AM -14.8 °F -29.1 °F -20.2 °F 77% 30.32 in - SE 5.8 mph - N/A   Clear
6:35 AM -14.8 °F -29.1 °F -20.2 °F 77% 30.32 in - SSE 5.8 mph - N/A   Clear
6:55 AM -16.6 °F -31.3 °F -22.0 °F 76% 30.33 in - SSE 5.8 mph - N/A   Clear
7:15 AM -16.6 °F -31.3 °F -23.8 °F 70% 30.33 in - SSE 5.8 mph - N/A   Clear
7:35 AM -14.8 °F -27.2 °F -20.2 °F 77% 30.34 in - SSE 4.6 mph - N/A   Clear
7:55 AM -20.2 °F -33.5 °F -25.6 °F 76% 30.34 in - SSE 4.6 mph - N/A   Clear
8:15 AM -18.4 °F -36.6 °F -25.6 °F 70% 30.33 in - ESE 8.1 mph - N/A   Clear
8:35 AM -16.6 °F -31.3 °F -22.0 °F 76% 30.34 in - SSE 5.8 mph - N/A   Clear
8:55 AM -14.8 °F -29.1 °F -22.0 °F 70% 30.35 in - SSE 5.8 mph - N/A   Clear
9:35 AM -16.6 °F -32.9 °F -22.0 °F 76% 30.35 in - SE 6.9 mph - N/A   Clear
9:55 AM -13.0 °F -27.0 °F -20.2 °F 70% 30.34 in - ESE 5.8 mph - N/A   Clear
10:15 AM -14.8 °F -27.2 °F -22.0 °F 70% 30.34 in 10.0 mi East 4.6 mph - N/A   Clear
10:35 AM -13.0 °F - -20.2 °F 70% 30.35 in 10.0 mi Calm Calm - N/A   Clear
10:55 AM -11.2 °F -24.8 °F -18.4 °F 70% 30.35 in 10.0 mi East 5.8 mph - N/A   Clear
11:15 AM -11.2 °F -29.0 °F -18.4 °F 70% 30.35 in 10.0 mi East 9.2 mph - N/A   Clear
11:35 AM -9.4 °F -27.9 °F -16.6 °F 71% 30.34 in 10.0 mi East 10.4 mph - N/A   Clear
11:55 AM -9.4 °F -29.8 °F -16.6 °F 71% 30.34 in 10.0 mi East 12.7 mph - N/A   Clear
12:15 PM -7.6 °F -29.1 °F -16.6 °F 65% 30.33 in 10.0 mi East 15.0 mph - N/A   Clear
12:35 PM -7.6 °F -29.8 °F -16.6 °F 65% 30.33 in 10.0 mi East 16.1 mph - N/A   Clear
12:55 PM -7.6 °F -29.1 °F -16.6 °F 65% 30.32 in 10.0 mi East 15.0 mph - N/A   Clear
1:15 PM -7.6 °F -29.1 °F -16.6 °F 65% 30.32 in 10.0 mi East 15.0 mph - N/A   Clear
1:35 PM -5.8 °F -26.8 °F -16.6 °F 60% 30.32 in 10.0 mi East 15.0 mph - N/A   Clear
1:55 PM -5.8 °F -26.0 °F -14.8 °F 65% 30.32 in 10.0 mi East 13.8 mph - N/A   Clear
2:15 PM -5.8 °F -27.5 °F -14.8 °F 65% 30.31 in - East 16.1 mph - N/A   Clear
2:35 PM -5.8 °F -27.5 °F -14.8 °F 65% 30.31 in - East 16.1 mph - N/A   Clear
2:55 PM -5.8 °F -27.5 °F -14.8 °F 65% 30.31 in - East 16.1 mph - N/A   Clear
3:15 PM -5.8 °F -26.8 °F -14.8 °F 65% 30.30 in - East 15.0 mph - N/A   Clear
3:35 PM -5.8 °F -28.2 °F -14.8 °F 65% 30.29 in 10.0 mi East 17.3 mph - N/A   Clear
3:55 PM -4.0 °F -24.5 °F -14.8 °F 60% 30.29 in 10.0 mi East 15.0 mph - N/A   Clear
4:15 PM -4.0 °F -25.8 °F -14.8 °F 60% 30.29 in 10.0 mi East 17.3 mph - N/A   Clear
4:35 PM -5.8 °F -26.0 °F -14.8 °F 65% 30.28 in 10.0 mi East 13.8 mph - N/A   Clear
4:55 PM -7.6 °F -29.8 °F -14.8 °F 71% 30.27 in 10.0 mi East 16.1 mph - N/A   Clear
5:15 PM -7.6 °F -29.8 °F -16.6 °F 65% 30.27 in - East 16.1 mph - N/A   Clear
6:35 PM -9.4 °F -32.1 °F -16.6 °F 71% 30.25 in - East 16.1 mph - N/A   Clear
6:55 PM -9.4 °F -31.4 °F -16.6 °F 71% 30.26 in - East 15.0 mph - N/A   Clear
7:15 PM -9.4 °F -30.6 °F -16.6 °F 71% 30.26 in - East 13.8 mph - N/A   Clear
7:35 PM -9.4 °F -31.4 °F -16.6 °F 71% 30.27 in - East 15.0 mph - N/A   Clear
7:55 PM -9.4 °F -31.4 °F -16.6 °F 71% 30.26 in - East 15.0 mph - N/A   Clear
8:15 PM -9.4 °F -32.1 °F -16.6 °F 71% 30.25 in - East 16.1 mph - N/A   Clear
8:35 PM -9.4 °F -33.5 °F -16.6 °F 71% 30.23 in - East 18.4 mph - N/A   Clear
8:55 PM -9.4 °F -33.5 °F -16.6 °F 71% 30.22 in - East 18.4 mph - N/A   Clear
9:15 PM -9.4 °F -32.8 °F -16.6 °F 71% 30.22 in - East 17.3 mph - N/A   Clear
9:35 PM -9.4 °F -29.8 °F -16.6 °F 71% 30.22 in - East 12.7 mph - N/A   Clear
9:55 PM -7.6 °F -25.7 °F -16.6 °F 65% 30.23 in - NE 10.4 mph - N/A   Clear
10:15 PM -5.8 °F - -13.0 °F 71% 30.24 in 10.0 mi Calm Calm - N/A   Clear
10:35 PM -2.2 °F -23.5 °F -11.2 °F 66% 30.23 in 10.0 mi ESE 17.3 mph - N/A   Clear
10:55 PM -4.0 °F -21.2 °F - N/A% 30.23 in 10.0 mi ESE 10.4 mph - N/A   Clear
11:15 PM -2.2 °F -20.7 °F -11.2 °F 66% 30.23 in 10.0 mi East 12.7 mph - N/A   Clear
11:35 PM -4.0 °F -23.7 °F -11.2 °F 71% 30.23 in 10.0 mi East 13.8 mph - N/A   Clear
11:55 PM -2.2 °F -22.2 °F -9.4 °F 71% 30.22 in 10.0 mi East 15.0 mph - N/A   Clear